[[{"header":{"parameterUnit":"m.s-1","parameterCategory":1,"la1":30.2991,"la2":30.254,"lo1":-89.0895,"lo2":-89.0444,"dy":0.0017,"dx":0.0017,"nx":28,"ny":28,"refTime":"2025-08-23T03:00:00:Z","depth":0,"parameterNumber":2,"parameterNumberName":"U-component_of_WINDS"},"data":[0,0,0,0,0,0,0,0,0,0,0,0,0,0,0,0,0,0,0,0,0,0,0,0,0,0,0,0,0,0,0,0,0,0,0,0,0,0,0,0,0,0,0,0,0,0,0,0,0,0,0,0,0,0,0,0,0,0,1.0765,1.0765,0,1.0696,1.0695,1.0695,1.0651,1.065,1.065,1.065,1.0576,1.0574,1.0572,0,0,0,0,0,0,0,0,0,0,0,0,0,1.0856,1.0855,1.0765,1.0765,1.0764,1.0696,1.0695,1.0694,1.0651,1.065,1.065,1.065,1.0576,1.0574,1.0572,0,0,0,0,0,0,0,0,0,0,0,0,0,1.0805,1.0854,1.0766,1.0734,1.073,1.0696,1.0695,1.0694,1.0651,1.065,1.065,1.065,1.0577,1.0575,1.0572,1.0563,0,0,1.0564,1.0563,0,0,0,0,0,0,0,0,1.0808,1.0802,1.0739,1.0736,1.0732,1.0682,1.07,1.065,1.0651,1.0681,1.065,1.0649,1.0611,1.0606,1.0593,1.056,1.0557,1.0564,1.0562,1.0561,1.056,0,0,0,0,0,0,0,1.0811,1.0804,1.0738,1.0738,1.0734,1.0722,1.0714,1.069,1.0649,1.0678,1.0675,1.0667,1.0609,1.0596,1.0591,1.0556,1.0564,1.0562,1.056,1.0559,1.051,1.051,0,0,0,0,0,0,1.082,1.0808,1.074,1.0736,1.077,1.0721,1.0712,1.0698,1.0649,1.0641,1.0668,1.0666,1.0601,1.0595,1.0589,1.0574,1.0561,1.0559,1.0557,1.051,1.051,1.051,0,0,0,0,0,0,1.0823,1.0815,1.0743,1.0771,1.0761,1.0719,1.0704,1.0697,1.0684,1.0641,1.0633,1.0662,1.06,1.0592,1.057,1.0571,1.0558,1.0555,1.0509,1.051,1.051,1.0546,0,0,0,0,0,0,1.0825,1.0816,1.0813,1.0771,1.0759,1.0726,1.0704,1.0696,1.068,1.0676,1.0634,1.0627,1.0599,1.0574,1.0567,1.0567,1.0553,1.0509,1.051,1.051,1.0545,1.0548,1.055,0,0,0,0,0,1.0829,1.0826,1.0813,1.0805,1.0755,1.0727,1.072,1.0689,1.068,1.0676,1.0649,1.0628,1.0572,1.0572,1.0564,1.0563,1.0509,1.0509,1.051,1.0543,1.0547,1.055,0,0,0,0,0,0,1.0868,1.0819,1.0805,1.0789,1.0762,1.0719,1.0713,1.0694,1.0669,1.0667,1.0629,1.062,1.0601,1.058,1.0581,1.0552,1.0538,1.0537,1.0566,1.0569,1.0572,1.0577,1.0551,0,0,0,0,0,1.0875,1.0857,1.0815,1.0804,1.0792,1.0755,1.0742,1.072,1.0691,1.0679,1.065,1.0622,1.0597,1.0582,1.0558,1.0542,1.0531,1.0537,1.054,1.0543,1.0542,1.053,1.0532,1.0512,1.0512,1.0512,0,0,1.0888,1.086,1.085,1.0811,1.0788,1.0769,1.0746,1.0727,1.0712,1.0676,1.0653,1.0631,1.0596,1.0577,1.0567,1.0558,1.0545,1.0543,1.0546,1.0543,1.0531,1.0533,1.0535,1.0513,1.0513,1.0513,0,0,1.0903,1.088,1.0868,1.0846,1.0812,1.0787,1.0784,1.0744,1.0728,1.0705,1.0677,1.0659,1.0618,1.0595,1.0577,1.0583,1.0562,1.0576,1.059,1.0579,1.0581,1.0582,1.0583,1.0584,1.0575,1.0575,1.0576,0,1.0923,1.0895,1.0864,1.0846,1.0829,1.0797,1.0784,1.0763,1.0723,1.0711,1.0703,1.0651,1.0626,1.06,1.0601,1.0589,1.0583,1.058,1.0584,1.0584,1.0585,1.0585,1.0586,1.0577,1.0577,1.0577,1.0577,0,1.0921,1.0902,1.0896,1.0858,1.0841,1.0826,1.0791,1.0777,1.0757,1.0734,1.0709,1.0678,1.0646,1.0638,1.0619,1.0609,1.0605,1.0591,1.0576,1.0589,1.0589,1.0588,1.058,1.0579,1.0579,1.0578,0,0,1.0958,1.0904,1.0902,1.0884,1.0844,1.0828,1.081,1.078,1.0768,1.0741,1.0725,1.0691,1.0678,1.0658,1.0636,1.0626,1.0631,1.0613,1.0612,1.0616,1.0617,1.0627,1.0628,1.0618,1.0618,1.0618,1.0619,0,1.0966,1.0934,1.0906,1.0884,1.0865,1.0834,1.0818,1.0792,1.0769,1.0748,1.0723,1.0699,1.0684,1.0671,1.0661,1.0633,1.0631,1.0633,1.0601,1.06,1.0609,1.0628,1.0638,1.0641,1.0619,1.0619,1.0619,0,1.097,1.0945,1.0922,1.0883,1.0874,1.0861,1.0831,1.0812,1.078,1.0764,1.0743,1.0719,1.0698,1.0686,1.0656,1.0658,1.0643,1.0628,1.0627,1.0622,1.0609,1.0622,1.0642,1.0642,1.0619,1.0619,1.0619,0,1.0998,1.0958,1.0939,1.0925,1.088,1.0871,1.0851,1.082,1.0803,1.0776,1.0765,1.0736,1.0719,1.0697,1.0665,1.066,1.0638,1.0624,1.0622,1.0623,1.0618,1.0619,1.0635,1.0611,1.0611,1.0611,1.0611,0,1.1009,1.0995,1.0951,1.0939,1.0922,1.0889,1.0874,1.0851,1.0823,1.0805,1.0777,1.076,1.0721,1.0699,1.0674,1.0652,1.0645,1.0631,1.0624,1.0633,1.0634,1.0622,1.062,1.0611,1.0611,1.0611,1.0611,0,1.1036,1.1006,1.0983,1.0942,1.0931,1.0921,1.0885,1.0872,1.0848,1.0825,1.0818,1.078,1.0753,1.072,1.0682,1.0665,1.0645,1.0636,1.0656,1.0652,1.0652,1.0652,1.066,1.0658,1.0637,1.0637,1.0637,0,1.1044,1.1033,1.0992,1.0978,1.096,1.0938,1.0921,1.0888,1.0872,1.0835,1.0825,1.0797,1.0772,1.073,1.0698,1.0668,1.0657,1.0662,1.0653,1.0661,1.0656,1.0656,1.0654,1.0664,1.0665,1.0665,1.0665,0,1.1062,1.1047,1.1025,1.0997,1.0978,1.0954,1.0928,1.0919,1.088,1.0863,1.0835,1.0816,1.0778,1.0749,1.0716,1.0694,1.0673,1.0669,1.0666,1.0674,1.0686,1.0678,1.0661,1.0668,1.0668,1.0668,1.0668,1.0667,1.1079,1.1067,1.1036,1.1011,1.0989,1.0966,1.0951,1.0926,1.0903,1.0869,1.0851,1.0824,1.0792,1.0745,1.0724,1.0701,1.0694,1.0691,1.069,1.069,1.0692,1.0691,1.0695,1.0695,1.0695,1.0695,1.0695,0,1.1094,1.1072,1.105,1.1016,1.0996,1.098,1.0951,1.0935,1.0912,1.0884,1.086,1.0828,1.08,1.0766,1.0735,1.0724,1.0713,1.0716,1.0716,1.0711,1.0701,1.0705,1.0726,1.0726,1.0726,1.0726,1.0726,1.0726,1.1099,1.1078,1.106,1.1028,1.1006,1.098,1.0965,1.0943,1.092,1.0886,1.0863,1.0842,1.0811,1.0778,1.0751,1.0741,1.0731,1.0737,1.0725,1.0715,1.0712,1.071,1.0714,1.0735,1.0735,1.0737,1.0737,1.0737]},{"header":{"parameterUnit":"m.s-1","parameterCategory":1,"la1":30.2991,"la2":30.254,"lo1":-89.0895,"lo2":-89.0444,"dy":0.0017,"dx":0.0017,"nx":28,"ny":28,"refTime":"2025-08-23T03:00:00:Z","depth":0,"parameterNumber":3,"parameterNumberName":"V-component_of_WINDS"},"data":[0,0,0,0,0,0,0,0,0,0,0,0,0,0,0,0,0,0,0,0,0,0,0,0,0,0,0,0,0,0,0,0,0,0,0,0,0,0,0,0,0,0,0,0,0,0,0,0,0,0,0,0,0,0,0,0,0,0,-1.8768,-1.8768,0,-1.8799,-1.8799,-1.88,-1.875,-1.8748,-1.8746,-1.8745,-1.8776,-1.8778,-1.878,0,0,0,0,0,0,0,0,0,0,0,0,0,-1.8664,-1.8667,-1.8768,-1.8768,-1.8769,-1.8799,-1.8799,-1.88,-1.875,-1.8748,-1.8746,-1.8744,-1.8775,-1.8778,-1.8781,0,0,0,0,0,0,0,0,0,0,0,0,0,-1.8704,-1.8667,-1.8768,-1.8748,-1.8746,-1.8799,-1.8799,-1.88,-1.8751,-1.8748,-1.8745,-1.8743,-1.8774,-1.8777,-1.8781,-1.8855,0,0,-1.8792,-1.8794,0,0,0,0,0,0,0,0,-1.8702,-1.8708,-1.875,-1.8749,-1.8747,-1.8768,-1.8774,-1.8818,-1.8751,-1.8749,-1.8745,-1.8742,-1.8775,-1.8778,-1.879,-1.8856,-1.8857,-1.8792,-1.8795,-1.8796,-1.8797,0,0,0,0,0,0,0,-1.8699,-1.8706,-1.878,-1.8751,-1.8749,-1.8736,-1.8739,-1.8782,-1.8776,-1.8749,-1.8745,-1.875,-1.8774,-1.8786,-1.879,-1.8858,-1.8792,-1.8795,-1.8798,-1.8799,-1.8985,-1.8988,0,0,0,0,0,0,-1.8699,-1.8704,-1.8779,-1.8781,-1.8718,-1.874,-1.8744,-1.8764,-1.8775,-1.8775,-1.8752,-1.8747,-1.8782,-1.8786,-1.8791,-1.8878,-1.8796,-1.8799,-1.8802,-1.8983,-1.8986,-1.8989,0,0,0,0,0,0,-1.8697,-1.8706,-1.8778,-1.8742,-1.875,-1.8745,-1.8768,-1.8766,-1.8778,-1.8778,-1.8776,-1.8766,-1.878,-1.8786,-1.8839,-1.8878,-1.8801,-1.8804,-1.8979,-1.8984,-1.8987,-1.9052,0,0,0,0,0,0,-1.8694,-1.8706,-1.8734,-1.8743,-1.8752,-1.8826,-1.8771,-1.8768,-1.8785,-1.8779,-1.879,-1.879,-1.8778,-1.8834,-1.8843,-1.8882,-1.8807,-1.8976,-1.8981,-1.8986,-1.9046,-1.9058,-1.9068,0,0,0,0,0,-1.8691,-1.8751,-1.8736,-1.8745,-1.8787,-1.8828,-1.8834,-1.8819,-1.8788,-1.8816,-1.8816,-1.8789,-1.8872,-1.884,-1.8849,-1.889,-1.8973,-1.898,-1.8986,-1.9042,-1.9056,-1.9067,0,0,0,0,0,0,-1.8747,-1.8752,-1.8735,-1.88,-1.8814,-1.882,-1.8855,-1.8835,-1.8858,-1.8851,-1.8832,-1.8835,-1.8892,-1.8896,-1.886,-1.8961,-1.8918,-1.8926,-1.8957,-1.897,-1.8981,-1.8978,-1.881,0,0,0,0,0,-1.8767,-1.88,-1.8802,-1.8859,-1.8867,-1.886,-1.8877,-1.8865,-1.8879,-1.8885,-1.8888,-1.8902,-1.8931,-1.8951,-1.8978,-1.9047,-1.9048,-1.9079,-1.909,-1.9099,-1.9106,-1.9142,-1.9156,-1.9009,-1.9009,-1.9009,0,0,-1.8808,-1.8815,-1.8837,-1.8871,-1.888,-1.8915,-1.8865,-1.8904,-1.8929,-1.889,-1.8941,-1.8944,-1.8958,-1.902,-1.9047,-1.9025,-1.9147,-1.9107,-1.9114,-1.9116,-1.915,-1.9164,-1.9177,-1.9014,-1.9013,-1.9012,0,0,-1.8901,-1.891,-1.8958,-1.8969,-1.8984,-1.8979,-1.899,-1.8999,-1.9,-1.905,-1.9022,-1.9051,-1.9102,-1.9113,-1.9126,-1.9223,-1.9199,-1.9232,-1.9288,-1.9324,-1.9335,-1.9345,-1.938,-1.9392,-1.924,-1.924,-1.924,0,-1.8951,-1.9002,-1.8986,-1.9026,-1.9042,-1.9008,-1.9057,-1.9068,-1.9091,-1.9102,-1.9077,-1.914,-1.9147,-1.9211,-1.9234,-1.9246,-1.9258,-1.9231,-1.9335,-1.9345,-1.9354,-1.9387,-1.94,-1.9244,-1.9243,-1.9243,-1.9242,0,-1.9062,-1.9098,-1.9135,-1.9159,-1.9178,-1.9223,-1.9213,-1.9234,-1.922,-1.9217,-1.9269,-1.9276,-1.9304,-1.9318,-1.9304,-1.9379,-1.9365,-1.9338,-1.9293,-1.9372,-1.9403,-1.9415,-1.9249,-1.9248,-1.9247,-1.9246,0,0,-1.9192,-1.9206,-1.922,-1.923,-1.9244,-1.9271,-1.9314,-1.9341,-1.936,-1.9377,-1.9412,-1.9455,-1.943,-1.9444,-1.9431,-1.9463,-1.9539,-1.9431,-1.9431,-1.9451,-1.9622,-1.9642,-1.9657,-1.9523,-1.9526,-1.9528,-1.9621,0,-1.9285,-1.9359,-1.9345,-1.9417,-1.945,-1.9418,-1.9455,-1.9467,-1.9466,-1.9493,-1.9491,-1.9522,-1.9487,-1.9495,-1.9524,-1.9524,-1.9573,-1.9517,-1.9556,-1.9557,-1.9553,-1.9673,-1.9695,-1.9783,-1.9632,-1.9634,-1.9636,0,-1.9403,-1.9425,-1.95,-1.9509,-1.9522,-1.9556,-1.9579,-1.9606,-1.9619,-1.9616,-1.9631,-1.9613,-1.9654,-1.9609,-1.9667,-1.9629,-1.9643,-1.9645,-1.9648,-1.9652,-1.9602,-1.968,-1.981,-1.9823,-1.9654,-1.9653,-1.9652,0,-1.9491,-1.9538,-1.959,-1.9599,-1.961,-1.9635,-1.964,-1.9651,-1.9668,-1.9689,-1.9699,-1.9724,-1.9738,-1.9758,-1.9746,-1.9714,-1.9805,-1.9759,-1.9803,-1.9804,-1.9824,-1.9823,-1.9959,-1.9834,-1.9834,-1.9833,-1.9833,0,-1.9596,-1.9643,-1.9629,-1.9661,-1.9712,-1.9696,-1.9747,-1.9749,-1.9759,-1.979,-1.9763,-1.9793,-1.9776,-1.9804,-1.9795,-1.9843,-1.985,-1.9848,-1.9845,-1.985,-1.9851,-1.986,-1.9854,-1.9837,-1.9836,-1.9835,-1.9835,0,-1.9702,-1.9695,-1.9748,-1.9754,-1.9757,-1.9795,-1.98,-1.9829,-1.9825,-1.9865,-1.9873,-1.9867,-1.9899,-1.9889,-1.9923,-1.9917,-1.9979,-1.9968,-1.9974,-1.9972,-2.0017,-2.0013,-2.0164,-2.0182,-2.0045,-2.0046,-2.0047,0,-1.977,-1.9806,-1.9816,-1.9835,-1.9843,-1.9874,-1.9891,-1.9875,-1.9894,-1.9912,-1.9939,-1.9968,-1.9991,-2.0043,-2.0041,-2.0067,-2.0057,-2.0108,-2.006,-2.0065,-2.0057,-2.0056,-2.0059,-2.0117,-2.0119,-2.012,-2.0121,0,-1.9892,-1.9886,-1.9912,-1.9937,-1.9958,-1.9977,-1.9993,-2.001,-1.9996,-2.0018,-2.0051,-2.0068,-2.0103,-2.0132,-2.0155,-2.0161,-2.0139,-2.0136,-2.0148,-2.0154,-2.0156,-2.0155,-2.0,-2.0133,-2.0132,-2.0131,-2.013,-2.013,-1.9981,-2.0011,-2.0023,-2.0052,-2.0063,-2.0079,-2.0106,-2.0106,-2.0133,-2.016,-2.0149,-2.0186,-2.0197,-2.0226,-2.0235,-2.0263,-2.0243,-2.026,-2.0264,-2.0269,-2.0275,-2.0151,-2.0267,-2.0267,-2.0266,-2.0266,-2.0266,0,-2.0101,-2.0106,-2.0134,-2.0158,-2.0181,-2.0158,-2.0175,-2.0196,-2.0229,-2.0242,-2.0265,-2.0301,-2.0329,-2.033,-2.0356,-2.0379,-2.0369,-2.0386,-2.0384,-2.0386,-2.0291,-2.0278,-2.0393,-2.0393,-2.0393,-2.0393,-2.0393,-2.0393,-2.0166,-2.0216,-2.0211,-2.0266,-2.0271,-2.0307,-2.0319,-2.0333,-2.0343,-2.0385,-2.0409,-2.0409,-2.0416,-2.0443,-2.0468,-2.0467,-2.0478,-2.0499,-2.0494,-2.0405,-2.0393,-2.0381,-2.0369,-2.0501,-2.0501,-2.0587,-2.0588,-2.0588]}]]